Overview Statistics Trail Chart Weather Telemetry Raw packets
 

This is the latest recevied weather packets stored in our database for station/object KC9DRE. If no packets are shown the sender has not sent any weather packets the latest 10 day(s).

<< 79 80 81 82 83 84 85 >>
Time Temp. Humidity Pressure Rain* Wind** Luminosity Snow
1777344589 17.22° C 95% 1010.1 hPa 0 mm - 0 W/m² -
1777331018 16.67° C 91% 1010.6 hPa 0 mm - 2 W/m² -
1777330715 16.67° C 91% 1010.6 hPa 0 mm - 2 W/m² -
1777330413 17.78° C 90% 1011.8 hPa 0 mm - 0 W/m² -
1777330110 17.78° C 88% 1008.1 hPa 0 mm - 1 W/m² -
1777329809 17.78° C 87% 1008.2 hPa 0 mm - 3 W/m² -
1777329507 17.78° C 86% 1008.7 hPa 0 mm - 6 W/m² -
1777329204 17.78° C 85% 1009.4 hPa 0 mm - 4 W/m² -
1777328901 17.78° C 84% 1009.6 hPa 0 mm - 7 W/m² -
1777328600 18.33° C 82% 1010.1 hPa 0 mm - 6 W/m² -
1777328297 18.89° C 81% 1010.1 hPa 0 mm - 6 W/m² -
1777327995 18.89° C 80% 1010.4 hPa 0 mm - 6 W/m² -
1777327694 18.89° C 80% 1010.7 hPa 0 mm - 6 W/m² -
1777327390 18.89° C 80% 1010.6 hPa 0 mm - 6 W/m² -
1777327088 18.89° C 80% 1010.9 hPa 0 mm - 15 W/m² -
1777326784 18.89° C 81% 1011.1 hPa 0 mm - 11 W/m² -
1777326481 19.44° C 79% 1011.7 hPa 0 mm - 4 W/m² -
1777326179 20.56° C 75% 1011.6 hPa 0 mm - 1 W/m² -
1777325877 21.67° C 78% 1011.1 hPa 0 mm - 6 W/m² -
1777325575 21.67° C 77% 1010.3 hPa 0 mm - 19 W/m² -
1777325272 21.67° C 75% 1009.9 hPa 0 mm - 27 W/m² -
1777324973 21.67° C 76% 1009.7 hPa 0 mm - 64 W/m² -
1777324666 21.67° C 77% 1009.5 hPa 0 mm - 59 W/m² -
1777324364 21.11° C 77% 1009.5 hPa 0 mm - 89 W/m² -
1777324061 21.11° C 77% 1009.3 hPa 0 mm - 33 W/m² -

* Rain latest hour (hover to see other rain measurements)
** Current wind speed in m/s (hover to see current wind gust speed)